Location: Foulognes
(49.1413°N, 0.8183°W)
Time: 12:32:03
(UTC+00:00)

Cosmos 2297 - Pass Details

Date: 21 October 2019
Orbit: 834 x 860 km, 71.0° (Epoch: 21 November)

Event Time Altitude Azimuth Distance (km) Brightness Sun altitude
Rises 18:42:00 0° 184° (S) 3,395 6.9 -17.0°
Reaches altitude 10° 18:44:31 10° 178° (S) 2,468 6.1 -17.4°
Maximum altitude 18:49:51 43° 108° (ESE) 1,179 4.0 -18.3°
Enters shadow 18:53:30 20° 47° (NE) 1,908 5.2 -18.8°
